Theta_e
319 311 318 328 325 325 328 331 329 338 339 334 330 331 332 333 335 340 341 341 340 333 322 321 320 317 315 314 314 315 313 316 317 316 316 317 317 317 318 319 320 323 329 331 332 330 332 334 332
318 318 321 326 327 332 330 329 339 338 337 333 331 330 329 338 340 338 342 338 338 334 323 321 320 316 315 315 315 315 315 317 318 318 318 319 320 321 321 321 323 329 333 334 334 334 335 337 337
322 325 319 324 330 334 332 332 337 338 338 336 334 330 330 332 337 338 339 340 340 334 324 323 321 315 314 316 316 316 316 317 318 319 319 321 322 324 325 327 327 331 335 336 337 336 336 337 339
327 325 319 327 335 335 333 334 339 340 338 337 337 331 332 333 333 337 341 339 341 340 329 322 318 315 314 316 316 316 317 317 319 320 320 322 323 325 327 329 332 335 335 337 338 339 338 337 337
326 323 321 326 329 333 331 331 337 338 339 338 336 333 334 333 334 334 341 340 339 340 339 326 318 315 315 316 317 317 317 318 319 320 320 322 323 324 326 328 331 337 339 340 340 340 337 336 336
321 319 324 327 329 331 331 330 334 337 338 336 331 333 333 333 333 334 334 339 337 337 340 333 322 317 317 317 318 317 318 318 319 320 321 321 322 323 323 326 333 336 339 338 338 337 337 336 334
325 320 324 326 328 330 331 330 328 329 329 330 330 332 331 331 332 333 333 335 339 337 338 340 330 320 318 318 319 318 318 319 319 320 321 322 322 323 323 322 330 335 333 328 326 328 330 333 331
321 319 322 323 329 330 330 330 328 329 330 331 330 331 331 330 332 331 330 331 331 340 337 341 339 332 319 318 319 319 320 320 320 321 322 323 324 322 322 331 332 331 330 330 330 328 326 325 331
324 319 320 323 326 329 329 330 329 330 331 331 332 332 331 332 331 330 330 330 330 339 340 342 341 336 332 320 319 320 321 321 322 322 323 325 326 323 324 333 336 335 334 332 329 324 320 321 328
335 326 323 322 323 325 328 329 329 331 331 332 332 332 332 332 331 330 329 327 329 330 340 339 341 337 335 331 321 320 321 323 325 324 324 325 326 324 330 335 336 335 334 331 330 329 323 324 326
330 335 329 326 324 325 327 329 329 331 331 331 330 332 331 331 331 330 329 330 330 330 335 342 338 337 337 337 333 325 321 323 328 326 325 326 328 333 335 334 334 334 334 332 332 332 328 328 331
326 326 328 328 326 326 326 328 329 329 329 328 328 328 330 329 328 328 328 330 330 331 329 342 339 340 340 340 336 331 329 327 326 328 328 331 335 339 338 337 337 336 336 334 333 333 333 332 332
327 327 326 326 327 326 327 328 328 329 329 328 327 327 327 327 328 330 330 330 330 330 330 332 340 340 342 343 341 339 337 337 335 332 333 335 336 338 337 334 335 335 335 334 333 333 332 332 332
317 324 327 326 326 326 327 327 327 327 326 327 327 326 326 327 327 328 330 330 330 330 330 333 337 341 344 343 341 340 340 340 339 341 339 338 337 338 335 336 338 337 335 335 334 333 332 331 330
317 318 320 323 325 326 326 327 327 327 327 327 326 327 326 326 327 327 329 329 330 331 329 332 337 339 342 343 341 342 343 342 343 342 340 339 338 338 335 337 336 336 336 335 334 332 333 332 330
319 319 319 320 321 324 326 328 326 325 326 327 327 328 327 326 327 329 330 330 331 331 328 331 336 338 338 343 342 343 343 345 345 342 341 340 339 337 335 337 336 335 337 337 334 332 332 331 330
318 320 320 320 321 322 324 326 326 326 326 327 327 327 327 327 326 328 330 331 331 329 328 331 336 338 339 340 343 344 342 343 342 341 338 337 336 336 336 335 335 334 337 337 334 333 333 331 330
319 320 320 321 322 323 324 324 325 325 326 326 327 327 327 328 327 327 328 327 331 329 329 332 335 338 341 344 343 344 344 342 340 339 337 335 334 335 336 336 336 336 337 335 333 333 332 333 331
318 319 320 320 322 323 323 324 324 325 325 325 325 325 327 326 325 327 330 332 329 327 328 331 337 343 348 349 347 344 345 342 340 337 336 335 336 336 337 336 334 336 335 333 333 333 332 331 329
317 318 318 319 321 321 322 322 324 324 324 325 326 326 326 327 326 325 326 328 330 329 333 337 341 347 350 349 348 345 345 341 338 336 335 335 336 336 335 335 333 334 333 332 331 331 331 329 328
317 317 317 318 319 319 319 321 322 323 324 326 326 325 325 326 323 323 323 323 329 340 344 347 348 350 350 349 347 346 344 339 337 336 334 334 334 335 334 333 332 332 330 330 330 329 329 328 327
316 317 318 319 319 319 319 322 322 323 325 325 326 326 325 325 325 324 323 323 339 345 346 349 352 350 349 349 347 345 339 338 337 337 336 335 336 334 333 331 331 331 330 330 330 329 329 329 327
316 318 318 318 318 318 319 322 322 324 324 324 324 323 323 323 323 324 324 328 342 344 344 343 348 349 348 347 345 343 339 337 335 335 335 335 334 333 332 331 330 329 330 330 329 329 329 328 327
314 316 317 317 317 319 319 321 322 322 324 325 324 324 324 330 327 329 339 341 342 343 343 346 348 346 347 345 339 335 336 335 335 333 333 334 334 333 331 329 328 329 329 329 330 328 327 327 328
311 313 315 319 319 320 318 320 322 323 324 324 324 323 332 337 338 339 340 340 342 345 346 346 346 342 339 336 336 336 337 334 333 333 334 334 333 332 331 329 329 329 330 331 329 328 328 329 327
308 313 315 319 321 319 319 321 321 322 323 324 324 322 337 339 338 339 338 341 344 344 344 340 339 340 337 336 336 334 333 332 332 332 334 333 332 331 328 329 328 330 331 331 331 330 329 329 329
309 309 314 316 319 320 320 320 320 320 322 325 324 327 337 338 339 339 339 341 341 340 339 338 339 337 335 337 335 334 332 333 334 332 331 331 330 328 328 329 329 330 331 330 330 329 328 329 329
312 312 315 315 318 321 322 321 325 326 324 325 325 335 337 337 338 338 339 339 339 340 339 338 338 336 336 335 335 334 334 333 331 332 332 329 328 329 329 327 329 329 330 329 330 328 329 330 328
315 310 312 314 316 320 321 324 324 328 325 324 324 337 336 338 338 339 339 338 338 338 339 338 337 336 337 335 333 333 332 332 331 331 330 328 329 328 329 328 328 328 328 329 329 329 329 330 330
314 316 312 316 318 320 320 324 323 326 324 331 333 337 336 337 338 338 338 337 337 338 338 337 337 335 335 334 334 332 332 332 332 330 329 328 328 327 328 328 328 329 330 329 329 329 330 332 330
Wind_Speed
9 6 1 1 3 1 4 8 7 5 8 5 5 6 3 3 6 5 21 21 20 26 35 34 30 27 24 22 20 17 15 13 12 11 10 8 7 6 4 3 2 3 3 3 2 2 2 2 2
9 3 3 3 2 2 5 9 4 1 4 14 13 2 5 3 11 9 13 17 18 25 36 35 31 27 25 23 21 18 16 14 12 10 9 7 7 6 4 3 2 3 4 5 4 5 5 4 5
8 8 2 4 4 5 5 4 1 6 8 6 6 2 1 5 6 7 22 22 20 25 32 31 30 27 25 23 21 19 17 15 13 11 8 7 6 4 3 3 3 4 6 6 7 7 7 7 9
6 2 3 2 9 12 10 12 9 4 6 18 21 6 4 7 4 13 26 23 21 21 24 29 30 27 26 23 22 20 18 16 14 11 9 7 5 4 3 4 6 7 8 8 9 11 11 9 9
6 2 3 4 9 12 16 17 10 9 9 13 32 7 8 10 23 15 21 25 24 22 22 30 32 31 28 25 23 22 19 18 16 13 10 9 7 5 5 6 7 8 8 9 11 12 13 12 12
2 2 2 6 12 17 17 14 7 9 8 15 3 6 5 18 19 17 14 27 26 26 24 28 34 33 32 29 25 24 21 20 18 16 13 11 9 7 6 7 8 9 10 11 11 12 12 13 13
3 3 5 7 14 20 19 10 6 5 6 3 3 5 7 10 17 20 17 19 34 29 29 28 34 36 34 32 30 27 25 23 21 19 17 14 12 10 7 7 8 10 11 12 13 13 14 15 14
4 2 5 6 13 20 18 14 7 6 4 2 4 4 1 6 18 18 12 4 7 38 36 36 36 38 39 36 34 31 28 27 25 22 20 17 15 13 9 7 9 9 9 10 12 13 14 14 15
5 4 5 12 13 16 17 17 14 7 6 4 6 5 8 30 24 4 6 6 14 35 41 39 39 39 41 41 39 35 32 30 28 25 23 20 19 15 11 9 11 12 11 10 11 11 12 12 13
11 6 11 17 18 15 16 11 19 17 6 6 15 10 27 29 14 4 3 5 14 15 38 43 41 40 41 42 43 40 37 35 33 30 27 24 20 15 11 9 11 11 11 11 11 6 8 10 11
14 20 15 18 17 19 20 22 16 18 9 8 9 9 16 12 24 1 4 9 18 22 14 44 44 42 43 41 42 42 41 38 36 33 30 26 21 15 12 13 15 15 16 14 12 10 11 9 9
16 21 21 17 19 23 25 22 21 18 13 9 10 13 5 12 8 7 8 12 19 28 21 35 44 44 42 38 41 40 39 40 40 35 31 27 23 18 17 14 14 14 15 16 12 10 13 11 11
24 22 19 20 21 24 24 25 24 24 18 13 11 14 11 10 9 11 17 19 21 28 20 17 31 43 46 41 40 38 37 37 35 32 32 29 25 22 20 17 16 14 10 11 10 11 10 14 15
17 18 22 19 23 23 24 25 21 21 13 16 18 16 15 10 11 13 15 22 28 31 20 15 25 42 46 43 42 41 38 37 32 30 28 30 27 24 18 16 17 16 14 14 15 12 10 13 13
20 22 20 23 21 20 16 27 31 19 13 17 12 14 14 11 13 12 22 23 33 23 16 15 25 37 44 44 43 40 38 35 32 32 29 32 30 23 17 16 14 11 15 16 16 17 16 18 15
17 18 21 22 23 23 16 42 15 16 22 22 25 23 19 12 10 18 25 26 20 16 14 15 22 32 43 45 42 38 35 34 32 32 28 29 29 22 18 17 16 14 15 15 15 18 21 21 20
9 18 22 26 22 16 11 32 15 21 23 22 19 23 23 22 11 20 25 20 19 21 20 21 25 30 40 45 38 29 30 27 31 30 23 22 23 21 18 16 16 16 16 14 15 16 18 20 20
13 18 22 27 9 12 22 32 28 29 27 26 23 21 18 18 15 19 25 26 26 19 15 19 26 29 37 39 36 27 25 24 23 26 23 22 22 19 14 16 16 14 13 13 12 15 15 17 18
15 19 22 16 16 17 25 26 26 26 22 18 17 10 8 10 10 11 14 13 19 19 19 21 27 30 33 32 32 29 23 23 23 17 22 19 19 16 15 11 10 12 12 12 12 12 15 17 17
22 25 24 14 10 14 16 14 19 17 13 9 10 9 9 8 8 9 14 20 18 21 15 21 28 32 34 35 29 29 24 22 21 17 17 19 20 14 10 12 12 11 10 12 13 13 14 9 10
25 24 18 18 14 22 18 18 19 19 14 11 12 9 10 18 12 12 10 13 15 12 20 25 29 34 33 31 27 24 22 21 21 17 18 17 14 10 9 8 8 9 9 10 8 10 12 11 11
23 14 20 20 15 14 11 17 19 11 16 19 15 16 15 20 18 15 11 8 15 21 23 25 27 30 27 30 28 29 20 19 20 20 18 17 14 12 9 7 6 7 5 4 6 7 11 12 12
24 11 19 16 15 16 18 9 7 9 9 10 13 13 13 14 13 11 11 7 22 27 26 24 25 28 26 30 27 23 22 21 21 21 19 17 12 8 6 5 4 4 4 5 5 5 7 10 12
17 16 19 16 11 12 17 15 20 12 6 13 10 14 15 6 4 5 15 23 22 27 27 26 28 24 24 25 24 24 21 21 24 20 17 15 11 7 6 6 4 5 4 3 5 5 6 8 12
15 13 7 9 9 16 13 12 17 11 13 18 12 10 3 9 11 12 16 15 18 22 26 27 24 24 26 27 23 19 17 19 18 15 13 12 10 7 7 7 6 5 3 4 4 4 6 5 9
13 13 8 13 8 17 13 8 9 22 15 11 14 8 12 12 13 12 12 12 17 22 23 28 28 26 25 23 20 19 17 15 12 9 10 11 11 8 11 6 4 3 2 2 4 6 7 6 5
19 18 18 15 11 8 5 10 22 26 19 11 17 9 13 12 13 15 12 12 19 19 24 28 26 27 24 23 19 13 11 10 13 12 12 11 11 11 10 6 4 3 3 3 4 6 7 6 6
18 8 6 11 12 12 6 13 9 10 18 10 9 12 14 14 15 12 12 13 19 22 27 26 25 25 22 22 19 16 17 14 12 12 11 12 12 11 10 6 5 4 2 5 7 6 6 7 5
9 16 11 6 9 9 7 9 12 8 9 10 10 18 16 16 15 14 14 17 19 24 27 26 25 24 22 22 20 17 15 12 13 11 14 13 13 11 8 5 4 4 5 4 3 4 5 7 5
17 20 15 8 18 5 5 9 11 5 7 7 15 14 15 17 16 16 16 13 20 19 24 26 24 25 22 20 19 17 18 15 11 10 10 10 11 9 7 8 5 5 3 3 3 2 2 3 4
Wind_Direction
263 258 96 330 38 158 258 263 276 313 354 326 31 53 31 34 86 152 155 169 159 167 175 174 175 171 165 161 156 157 156 147 144 139 133 132 133 129 123 122 143 164 171 165 194 218 253 263 254
234 183 256 270 130 255 269 253 139 134 257 13 340 297 85 83 97 114 118 157 164 170 177 176 177 174 169 165 164 165 164 159 156 148 141 143 146 144 145 159 197 209 209 205 215 237 249 254 252
216 240 327 181 206 197 233 290 77 118 351 310 10 315 52 133 100 129 153 158 157 164 176 178 178 177 175 172 170 173 173 170 166 159 154 158 158 161 172 208 219 229 229 232 238 242 246 255 257
203 272 294 259 260 267 254 267 128 71 350 353 290 122 71 84 72 113 145 157 158 158 176 183 183 183 181 180 180 181 182 178 176 170 166 172 178 193 212 236 239 235 235 240 246 248 245 248 254
245 282 238 241 258 263 266 268 179 145 133 191 248 164 115 88 116 118 140 165 167 167 176 188 188 187 187 188 188 190 189 188 186 183 180 182 189 208 223 238 244 246 248 255 258 259 263 257 250
265 169 273 235 263 263 272 279 194 188 184 239 25 110 117 142 135 145 151 177 185 181 186 186 190 192 189 190 195 196 196 198 197 193 191 193 198 210 222 232 244 255 262 261 261 261 262 259 255
119 348 242 259 265 280 278 327 353 334 29 58 62 106 175 160 158 164 180 191 181 186 191 185 189 195 196 191 195 200 201 204 205 202 201 203 210 223 233 252 253 254 259 269 271 263 259 259 256
142 193 281 275 263 275 291 310 294 321 324 37 100 73 286 206 172 172 177 150 217 188 191 191 189 193 198 197 197 199 205 209 211 208 209 210 216 226 237 249 249 256 249 260 269 269 267 257 247
170 204 229 249 251 264 291 305 306 292 159 308 354 122 336 325 303 18 205 217 234 181 192 193 192 194 198 200 201 201 205 212 215 213 215 215 218 225 240 243 250 243 244 262 280 272 264 258 244
214 224 225 243 266 279 280 283 294 304 359 339 309 12 309 304 323 18 338 306 315 303 198 195 196 197 198 202 204 204 204 210 215 215 216 217 220 223 227 233 238 258 254 256 264 255 255 250 245
231 241 237 249 263 269 282 292 297 300 305 265 298 190 239 217 251 157 322 313 306 293 199 195 198 201 199 197 203 206 206 210 217 217 218 219 218 214 207 228 239 251 245 244 245 245 239 244 238
249 238 239 250 250 269 276 281 284 286 281 274 295 298 217 234 257 222 235 259 269 274 269 199 202 201 202 194 202 204 206 211 219 218 219 216 209 210 211 219 236 243 243 237 231 248 246 238 242
233 245 248 245 244 249 261 269 274 275 285 287 289 296 289 279 252 247 235 238 255 268 246 217 206 210 203 194 200 203 205 210 212 218 219 216 210 205 218 225 230 238 213 211 231 240 218 224 230
267 264 253 251 244 248 253 261 268 267 272 281 282 280 277 261 260 262 251 247 249 257 240 212 210 208 201 195 200 203 205 209 208 215 215 212 207 208 220 226 230 223 231 211 233 238 220 211 230
267 274 281 263 259 258 261 268 260 274 271 269 270 277 266 264 261 241 256 255 260 241 210 213 202 203 204 200 201 200 201 206 205 209 210 206 205 208 212 228 228 244 243 245 248 248 243 245 242
247 257 259 257 260 261 247 265 263 282 275 277 279 270 270 253 249 268 280 273 256 201 212 214 206 206 207 199 200 200 199 200 204 202 202 201 202 202 209 230 240 251 253 253 258 254 250 250 249
241 240 245 254 241 251 234 265 273 277 270 271 263 261 260 258 247 251 262 266 212 206 219 209 207 202 206 205 193 186 187 187 191 187 186 185 192 197 212 234 239 250 248 254 265 256 249 250 249
218 228 238 249 247 239 236 251 260 261 262 260 261 254 253 252 242 235 247 262 260 230 233 221 207 200 204 201 195 182 183 185 175 189 196 199 197 202 225 232 232 244 247 269 263 251 241 242 244
258 239 248 248 237 252 252 260 262 266 264 263 268 254 262 257 249 244 256 242 236 242 245 242 200 195 188 176 177 181 171 178 180 170 195 197 197 201 209 210 233 245 257 267 260 257 247 252 247
242 257 262 281 255 252 258 261 253 257 260 243 246 264 262 251 251 250 258 260 244 242 244 219 197 184 180 177 172 176 171 167 172 186 177 169 178 194 228 241 249 251 263 264 267 251 246 248 219
231 239 255 262 283 283 297 290 283 279 280 281 274 250 247 259 251 249 247 235 233 181 174 167 172 173 169 167 160 165 172 166 181 183 185 194 202 197 205 227 251 261 264 265 261 243 235 235 210
242 240 239 252 257 257 247 271 257 265 263 261 259 254 249 251 249 244 237 238 159 149 146 141 157 159 153 158 161 163 160 161 182 191 179 182 182 178 213 249 257 263 243 233 242 245 241 236 223
250 245 248 265 245 258 255 260 253 206 250 271 268 265 262 255 239 229 211 158 133 140 134 139 142 150 151 159 164 167 158 165 161 147 144 147 169 202 222 212 245 216 203 245 252 240 246 235 232
266 252 247 260 262 268 246 229 259 244 234 255 263 265 279 246 245 110 111 117 117 129 134 139 143 144 152 158 153 153 143 142 142 143 145 151 155 170 193 201 213 199 227 237 241 239 245 237 231
260 229 247 235 232 241 218 252 262 248 227 235 250 266 136 92 80 99 114 121 119 118 126 137 139 132 138 141 138 126 126 153 136 137 143 149 158 182 193 196 198 176 216 239 246 251 239 246 225
254 228 211 214 203 253 259 256 253 247 248 239 249 216 120 107 108 105 109 113 116 120 124 132 132 126 133 133 122 123 127 130 138 145 160 165 178 176 160 172 193 210 236 222 254 252 245 254 245
251 249 226 252 283 264 245 243 262 260 259 241 239 154 128 124 121 123 118 118 120 126 124 136 134 131 130 130 130 132 122 137 138 134 146 154 151 156 160 183 186 203 229 238 273 276 252 245 252
238 251 225 219 232 253 254 253 237 251 230 239 150 136 127 128 124 122 120 122 129 127 135 140 137 135 139 138 139 133 130 126 130 143 148 145 153 156 173 175 180 195 227 262 246 253 237 239 253
285 235 241 240 210 237 242 266 249 236 177 181 149 142 138 133 134 125 125 131 126 132 142 144 144 146 145 145 152 151 148 145 138 131 138 140 143 156 172 194 239 240 258 238 257 248 237 235 226
279 282 225 230 222 260 218 260 330 91 146 129 146 130 129 130 128 127 131 127 131 134 140 148 151 152 154 160 163 152 152 143 139 145 150 156 159 172 203 225 262 185 203 316 285 248 154 294 237